sat.trackr.live / text

‹ back to catalog

STARLINK-31723

NORAD 59553 · 2024-074V

PAYLOAD ACTIVE UNKNOWN

§ Identity

Operator
Country
US
Launch date
2024-04-18
Launch site
AFETR
Launch vehicle
Mass (kg)
RCS (m²)

Purposes: comms

External: N2YO · Heavens-Above · Gunter

§ Orbital elements

Epoch: 2026-09-21T10:48:40.404096Z

Period
94.27 min
Inclination
43.0027°
Eccentricity
0.0001123
Mean motion
15.27572544 rev/d
Perigee alt
482.3 km
Apogee alt
483.8 km
Semi-major
6,861.2 km
B*
-9.0354e-6
RAAN
317.9486°
Arg perigee
279.7592°
Mean anomaly
80.3133°
Rev number
13,595

§ Raw data

STARLINK-317231 59553U 24074V   26264.45046764 -.00000511  00000+0 -90354-5 0  99942 59553  43.0027 317.9486 0001123 279.7592  80.3133 15.27572544135954

JSON: /api/v1/satellites/59553 · /tle

For live sub-satellite position, see the globe view (requires WebGL).

§ Visibility from observer

Set your observer location to see the next 7 days of passes ≥ 10°. The values pass through the URL so the page stays shareable.

No JS? Fill the form by hand. The geolocation button needs JavaScript.